SCP
0 0 0 0 0 0 0 0 0 0 0 0 0 0 0 0 0 0 0 0 0 0 0 0 0 0 0 0 0 0 0 0 0 0 0 0 0 0 0 0 0 0 0
0 0 0 0 0 0 0 0 0 0 0 0 0 0 0 0 0 0 0 0 0 0 0 0 0 0 0 0 0 0 0 0 0 0 0 0 0 0 0 0 0 0 0
0 0 0 0 0 0 0 0 0 0 0 0 0 0 0 0 0 0 0 0 0 0 0 0 0 0 0 0 0 0 0 0 0 0 0 0 0 0 0 0 0 0 0
0 0 0 0 0 0 0 0 0 0 0 0 0 0 0 0 0 0 0 0 0 0 0 0 0 0 0 0 0 0 0 0 0 0 0 0 0 0 0 0 0 0 0
0 0 0 0 0 0 0 0 0 0 0 0 0 0 0 0 0 0 0 0 0 0 0 0 0 0 0 0 0 0 0 0 0 0 0 0 0 0 0 0 0 0 0
0 0 0 0 0 0 0 0 0 0 0 0 0 0 0 0 0 0 0 0 0 0 0 0 0 0 0 0 0 0 0 0 0 0 0 0 0 0 0 0 0 0 0
0 0 0 0 0 0 0 0 0 0 0 0 0 0 0 0 0 0 0 0 0 0 0 0 0 0 0 0 0 0 0 0 0 0 0 0 0 0 0 0 0 0 0
0 0 0 0 0 0 0 0 0 0 0 0 0 0 0 0 0 0 0 0 0 0 0 0 0 0 0 0 0 0 0 0 0 0 0 0 0 0 0 0 0 0 0
0 0 0 0 0 0 0 0 0 0 0 0 0 0 0 0 0 0 0 0 0 0 0 0 0 0 0 0 0 0 0 0 0 0 0 0 0 0 0 0 0 0 0
0 0 0 0 0 0 0 0 0 0 0 0 0 0 0 0 0 0 0 0 0 0 0 0 0 0 0 0 0 0 0 0 0 0 0 0 0 0 0 0 0 0 0
0 0 0 0 0 0 0 0 0 0 0 0 0 0 0 0 0 0 0 0 0 0 0 0 0 0 0 0 0 0 0 0 0 0 0 0 0 0 0 0 0 0 0
0 0 0 0 0 0 0 0 0 0 0 0 0 0 0 0 0 0 0 0 0 0 0 0 0 0 0 0 0 0 0 0 0 0 0 0 0 0 0 0 0 0 0
0 0 0 0 0 0 0 0 0 0 0 0 0 0 0 0 0 0 0 0 0 0 0 0 0 0 0 0 0 0 0 0 0 0 0 0 0 0 0 0 0 0 0
0 0 0 0 0 0 0 0 0 0 0 0 0 0 0 0 0 0 0 0 0 0 0 0 0 0 0 0 0 0 0 0 0 0 0 0 0 0 0 0 0 0 0
0 0 0 0 0 0 0 0 0 0 0 0 0 0 0 0 0 0 0 0 0 0 0 0 0 0 0 0 0 0 0 0 0 0 0 0 0 0 0 0 0 0 0
0 0 0 0 0 0 0 0 0 0 0 0 0 0 0 0 0 0 0 0 0 0 0 0 0 0 0 0 0 0 0 0 0 0 0 0 0 0 0 0 0 0 0
0 0 0 0 0 0 0 0 0 0 0 0 0 0 0 0 0 0 0 0 0 0 0 0 0 0 0 0 0 0 0 0 0 0 0 0 0 0 0 0 0 0 0
0 0 0 0 0 0 0 0 0 0 0 0 0 0 0 0 0 0 0 0 0 0 0 0 0 0 0 0 0 0 0 0 0 0 0 0 0 0 0 0 0 0 0
0 0 0 0 0 0 0 0 0 0 0 0 0 0 0 0 0 0 0 0 0 0 0 0 0 0 0 0 0 0 0 0 0 0 0 0 0 0 0 0 0 0 0
0 0 0 0 0 0 0 0 0 0 0 0 0 0 0 0 0 0 0 0 0 0 0 0 0 0 0 0 0 0 0 0 0 0 0 0 0 0 0 0 0 0 0
0 0 0 0 0 0 0 0 0 0 0 0 0 0 0 0 0 0 0 0 0 0 0 0 0 0 0 0 0 0 0 0 0 0 0 0 0 0 0 0 0 0 0
0 0 0 0 0 0 0 0 0 0 0 0 0 0 0 0 0 0 0 0 0 0 0 0 0 0 0 0 0 0 0 0 0 0 0 0 0 0 0 0 0 0 0
0 0 0 0 0 0 0 0 0 0 0 0 0 0 0 0 0 0 0 0 0 0 0 0 0 0 0 0 0 0 0 0 0 0 0 0 0 0 0 0 0 0 0
0 0 0 0 0 0 0 0 0 0 0 0 0 0 0 0 0 0 0 0 0 0 0 0 0 0 0 0 0 0 0 0 0 0 0 0 0 0 0 0 0 0 0
0 0 0 0 0 0 0 0 0 0 0 0 0 0 0 0 0 0 0 0 0 0 0 0 0 0 0 0 0 0 0 0 0 0 0 0 0 0 0 0 0 0 0
0 0 0 0 0 0 0 0 0 0 0 0 0 0 0 0 0 0 0 0 0 0 0 0 0 0 0 0 0 0 0 0 0 0 0 0 0 0 0 0 0 0 0
Wind_Speed
7 9 10 9 9 9 9 10 10 10 10 10 11 11 11 11 11 10 10 10 10 10 10 9 9 9 9 8 8 8 7 7 7 7 6 6 6 5 5 5 5 5 8
9 10 11 10 9 9 9 10 10 10 10 10 10 10 10 11 11 11 11 11 10 10 10 10 10 10 10 9 9 8 7 6 6 6 6 5 5 5 6 6 6 5 7
10 10 10 10 10 10 10 10 10 10 11 10 10 10 10 11 11 11 11 10 10 10 10 10 10 10 10 10 9 9 6 5 5 4 4 2 4 6 7 7 7 7 7
10 10 9 10 10 10 10 10 10 11 11 11 11 10 10 11 11 11 10 10 10 11 10 10 10 10 9 9 9 8 7 5 5 4 2 3 4 7 6 7 6 7 7
11 11 9 10 10 10 10 10 10 10 11 11 11 11 11 11 10 10 10 10 10 11 11 10 9 9 9 8 8 7 6 6 5 3 3 3 3 6 6 6 5 6 6
11 11 10 11 11 10 10 10 10 11 11 11 11 11 11 10 10 10 10 10 10 11 11 10 9 8 8 8 7 6 6 6 4 3 4 4 4 6 6 5 6 6 5
10 11 10 11 11 11 10 10 10 10 10 11 11 11 11 11 11 11 11 11 11 10 10 10 9 8 8 8 7 6 6 5 3 3 4 4 4 7 7 6 6 6 5
10 11 10 12 11 11 11 10 10 10 10 10 10 10 11 11 12 12 11 11 11 11 10 10 9 9 9 8 8 7 6 4 3 4 4 4 6 7 8 7 6 6 6
7 9 9 9 9 10 10 10 9 9 9 8 9 9 9 10 11 11 11 11 11 11 10 10 10 9 9 8 8 7 7 6 3 3 6 4 7 9 9 8 7 7 6
6 6 7 8 8 7 7 9 8 8 7 7 6 7 8 8 9 10 10 10 10 10 10 10 9 8 8 7 7 6 7 5 4 5 4 6 10 9 9 9 9 9 8
5 5 5 6 6 7 7 8 7 6 6 5 4 4 4 3 5 5 9 9 9 8 8 7 7 6 6 5 5 5 4 3 4 5 4 9 11 10 10 10 10 9 9
5 5 4 5 5 5 5 5 3 3 3 2 3 3 2 3 4 6 7 7 7 6 5 4 3 3 2 1 2 2 2 4 4 5 5 10 10 10 10 10 10 10 10
5 3 4 4 5 5 3 3 2 2 2 2 2 3 3 3 3 4 2 3 2 3 1 1 1 0 2 2 2 2 3 4 4 4 5 10 10 10 10 10 10 10 10
5 3 3 4 5 5 4 2 2 2 1 2 2 4 3 2 2 2 2 2 2 1 1 1 1 2 3 3 4 4 4 3 3 3 5 9 10 10 10 10 10 10 10
5 4 4 4 4 5 4 2 3 2 2 2 1 2 3 2 2 2 2 2 2 1 1 1 2 3 3 4 4 4 4 4 4 4 4 9 10 9 10 10 9 9 9
6 5 4 3 4 4 3 2 3 2 2 2 1 2 3 2 2 2 3 2 2 2 2 2 3 3 2 3 3 3 4 3 4 4 4 5 8 8 9 9 8 8 8
6 6 5 3 4 4 3 3 3 2 2 2 1 2 3 3 3 3 2 2 2 2 3 3 3 2 3 3 4 3 3 3 3 3 3 3 4 6 7 8 8 7 7
6 7 6 3 3 4 3 3 2 2 2 2 2 2 3 4 4 3 2 2 3 3 2 2 2 3 3 3 3 3 3 2 3 2 2 3 3 3 4 6 7 7 6
6 7 7 5 4 4 3 2 2 3 2 2 2 2 3 3 4 3 2 2 3 2 2 3 3 2 2 3 2 2 2 2 1 2 3 3 3 3 3 5 6 6 5
5 6 7 5 4 4 2 2 2 2 2 2 2 2 3 2 3 3 2 3 3 2 2 3 3 2 2 1 2 2 1 1 1 2 2 2 2 3 3 4 3 3 4
5 4 6 6 5 4 2 2 2 2 2 2 2 2 2 2 3 3 2 3 2 2 3 3 2 2 1 1 2 2 1 1 2 1 1 2 2 2 3 3 2 2 2
5 5 5 5 5 5 3 2 2 3 2 2 1 1 1 3 2 2 2 2 2 2 3 3 2 2 1 1 1 1 1 2 2 2 1 1 2 2 2 3 3 3 2
4 4 5 5 5 6 4 2 2 3 2 2 1 1 1 2 2 2 2 2 2 2 2 2 2 2 1 1 2 1 1 1 1 2 1 1 2 1 1 2 2 3 3
5 4 4 5 6 6 5 3 4 3 2 2 2 1 1 2 2 2 2 2 2 2 2 1 2 1 1 1 1 1 1 1 1 1 2 1 1 1 1 1 2 2 3
5 4 3 4 4 5 5 4 4 3 2 2 2 2 2 1 2 2 2 2 2 2 2 2 2 1 1 1 1 1 2 1 1 1 0 1 1 1 1 1 1 2 2
5 4 3 3 3 4 5 5 4 4 3 3 3 2 2 1 1 2 2 2 2 2 2 2 2 2 1 1 1 1 0 0 1 1 0 1 1 1 1 0 1 2 2
Wind_Direction
90 87 71 64 63 64 65 63 63 62 59 59 58 57 56 55 62 65 66 67 67 70 76 78 77 79 77 79 85 88 90 91 101 103 104 107 107 99 105 114 114 105 111
97 92 78 68 68 70 68 67 66 65 62 63 63 65 65 64 65 66 65 66 67 68 70 73 76 78 77 76 79 83 90 96 102 111 110 108 106 104 112 110 103 103 111
96 97 85 74 75 74 72 70 68 67 65 65 66 65 67 68 70 69 67 63 64 68 69 71 75 76 77 75 73 73 80 90 93 101 105 110 101 95 105 106 100 102 105
93 88 84 84 80 77 75 72 69 69 68 69 69 69 70 71 71 70 71 68 66 67 72 74 76 78 79 78 74 70 69 77 74 72 81 87 89 98 98 98 99 96 97
92 92 93 92 88 83 79 75 71 71 70 69 69 70 72 73 75 75 73 73 72 72 73 75 77 78 77 76 71 66 64 65 59 62 61 74 83 103 98 90 93 96 97
100 99 100 98 95 89 83 78 76 74 73 71 71 72 72 74 76 77 78 77 75 75 76 72 71 76 76 74 69 65 63 56 53 63 66 71 84 97 97 93 92 93 99
106 109 110 107 102 97 91 85 79 78 78 76 75 75 75 75 75 75 77 78 79 76 75 73 69 74 73 68 64 58 54 49 66 73 77 77 87 95 95 95 95 93 97
110 115 117 116 111 105 98 91 86 83 81 81 79 81 82 81 78 76 76 78 80 78 78 73 70 82 77 69 62 53 38 33 61 80 82 86 95 95 91 87 90 93 98
113 122 130 131 122 114 108 101 96 95 93 91 89 89 92 91 89 85 81 79 81 81 81 76 74 78 70 64 57 46 39 40 51 71 78 78 88 87 85 85 86 91 92
116 119 126 132 132 128 122 120 119 116 114 113 111 109 108 104 100 96 87 85 86 86 85 80 76 75 69 63 56 48 46 46 64 71 69 77 82 80 77 80 83 81 82
110 114 121 122 124 127 130 128 139 141 140 139 140 142 142 127 111 102 97 98 95 93 93 90 86 84 77 63 56 52 47 60 69 71 63 80 84 81 80 81 82 80 79
121 120 121 124 121 117 117 136 153 136 149 165 133 133 131 89 95 100 112 111 107 104 102 104 102 96 100 77 74 75 54 63 68 75 72 80 82 81 82 82 83 84 82
116 111 123 124 118 112 105 121 112 109 126 117 117 111 101 98 107 111 125 122 121 124 117 113 128 143 91 81 67 77 71 66 65 71 75 83 82 80 81 81 81 85 86
116 115 108 113 114 120 117 121 122 113 103 84 64 92 88 88 93 97 106 114 113 109 86 81 89 66 68 70 66 64 67 71 77 85 86 89 87 86 85 84 83 83 84
131 135 117 109 113 108 110 128 112 104 101 94 60 88 93 87 93 95 88 83 85 90 80 50 58 62 57 61 63 63 66 72 83 87 89 93 93 93 91 88 85 82 84
141 133 116 121 114 111 117 111 98 107 110 98 85 92 97 91 83 77 79 74 65 62 70 65 65 61 60 65 60 63 70 67 77 94 109 99 98 100 98 95 91 87 85
141 130 120 131 118 111 105 93 98 99 91 90 98 82 96 89 84 79 73 74 65 57 55 53 51 52 59 63 60 58 68 73 76 89 108 116 109 100 103 102 97 91 85
141 131 131 136 124 114 106 108 109 97 88 85 68 62 82 83 75 69 62 64 67 56 57 61 50 52 54 59 52 44 54 70 80 100 105 111 114 111 108 111 106 99 92
146 143 145 142 135 115 112 120 106 99 95 88 68 58 64 72 83 83 72 67 71 62 54 61 57 55 59 62 61 53 47 55 57 87 94 102 108 117 115 114 111 107 101
148 149 145 141 137 123 121 119 97 95 97 83 79 66 68 69 78 84 83 73 75 74 63 66 71 63 60 63 59 63 55 63 43 75 95 94 113 125 124 121 123 113 110
146 150 144 145 141 127 126 115 116 112 99 87 92 83 86 90 87 78 67 71 68 73 74 74 71 78 55 61 59 29 18 37 67 67 92 99 94 100 120 133 130 120 120
159 165 151 153 153 142 141 138 138 126 124 108 92 107 98 87 89 100 100 91 83 73 65 67 71 63 22 38 79 74 33 8 1 31 72 114 110 95 96 102 107 109 117
160 178 165 156 147 137 141 125 117 100 89 89 101 107 101 103 106 105 101 103 107 100 98 93 92 88 52 1 38 73 103 167 329 338 351 68 91 89 89 95 107 113 111
174 186 166 153 147 141 137 133 137 135 142 158 144 144 121 106 104 91 101 100 97 100 113 115 90 98 97 31 3 15 50 116 122 322 324 360 75 97 116 104 89 91 103
168 169 166 150 143 132 136 143 146 142 151 141 133 141 137 124 123 112 100 87 92 97 96 80 85 62 75 84 59 20 10 2 23 131 286 321 351 353 73 112 136 114 113
155 157 160 139 134 133 138 147 152 153 149 140 135 142 148 138 130 118 107 106 106 102 96 92 91 72 58 58 46 53 84 360 323 63 146 278 290 295 319 196 150 140 128